Voltar ao catálogo

GLOBALSTAR M023

AtivoComunicaçõesLEO
NORAD 25621·PAYLOAD·🇺🇸 United States

Lançado Feb 9, 1999 de Baikonur Cosmodrome

Loading…

Próximas Passagens (próximas 24 horas)

TLE

AtualizadoSource: Space-Track

Época: Sep 14, 2026, 20:30 UTC

1 25621U 99004A   26257.85426062 -.00000085  00000-0  10609-3 0  9996
2 25621  52.0092 108.9315 0010520  54.4149 330.5275 12.62534403273162

Acompanhe GLOBALSTAR M023 em tempo real com AllMySat

Download on the App Store